Azur

operational
NORAD ID: 4221 Int'l Des: 1969-097 Owner: DFVLR Country: D
LEORETROGRADE

About Azur

Description loading...

Live Position

Loading 3D Globe...

Upcoming Passes

Altitude History

Altitude vs Time

uPlot chart will show altitude changes over time

Two-Line Element Set

1 04221U 69097A 26062.60727337 .00072191 00000-0 11560-2 0 9996
2 04221 102.6595 132.1346 0248383 143.5856 218.2548 15.25094065709271
Epoch: Mar 3, 2026 • Age: 29 hours

Current Status

Altitude 477.4 km
Velocity 7.64 km/s
Sub-Earth Point 55.79°N, 123.04°W
Type other

Large Constellations

Loading constellations...